Date String (YYYY-MM-DD hh:mm:ss) UTC,Instrument flags,Ambient pressure (hPa),Sample flow (lpm),Bypass flow (lpm),Sample temperature (°C),Ambient temperature (°C),ASC tube jacket temperature (°C),LED temperature (°C),Box temperature (°C),Sample RH (%),Span deviation,Mass concentration (μg/m³),Mass concentration (μg/m³),Mass concentration (μg/m³)
DateTimeUTC,F1_M11,P_M11,Q1_M11,Q2_M11,T1_M11,T2_M11,T3_M11,T4_M11,T5_M11,U1_M11,ZSPAN_M11,X0_M11,X2_M11,X1_M11
2022-12-28 04:00:00,,0807.8,4.98,0.00,25.0,23.7,00.0,33.8,26.8,15.9,0000.0,0002.74,0000.80,0000.44
2022-12-28 04:01:00,,0807.7,5.00,0.00,25.0,23.8,00.0,33.9,26.8,15.8,0000.0,0001.82,0000.80,0000.46
2022-12-28 04:02:00,,0807.8,5.01,0.00,25.0,23.8,00.0,33.9,26.9,15.7,0000.0,0001.73,0000.80,0000.46
2022-12-28 04:03:00,,0807.8,5.00,0.00,25.0,23.9,00.0,33.9,26.9,15.8,0000.0,0001.65,0000.76,0000.45
2022-12-28 04:04:00,,0807.9,5.01,0.00,25.0,23.9,00.0,33.9,26.9,15.8,0000.0,0001.75,0000.78,0000.44
2022-12-28 04:05:00,,0807.9,5.00,0.00,25.1,23.9,00.0,33.9,26.9,15.6,0000.0,0001.78,0000.77,0000.42
2022-12-28 04:06:00,,0808.0,4.99,0.00,25.1,23.9,00.0,33.9,27.0,15.7,0000.0,0001.71,0000.72,0000.40
2022-12-28 04:07:00,,0808.0,5.00,0.00,25.1,23.9,00.0,33.9,26.9,15.8,0000.0,0002.59,0000.71,0000.38
2022-12-28 04:08:00,,0808.0,4.99,0.00,25.1,23.9,00.0,33.9,26.9,15.7,0000.0,0002.79,0000.64,0000.37
2022-12-28 04:09:00,,0807.9,5.00,0.00,25.1,23.9,00.0,33.9,26.9,15.7,0000.0,0002.58,0000.57,0000.35
2022-12-28 04:10:00,,0807.9,4.99,0.00,25.1,23.9,00.0,33.9,26.9,15.8,0000.0,0002.36,0000.50,0000.32
2022-12-28 04:11:00,,0807.8,5.01,0.00,25.1,23.8,00.0,34.0,26.9,15.8,0000.0,0002.22,0000.45,0000.30
2022-12-28 04:12:00,,0807.8,5.02,0.00,25.1,23.7,00.0,34.0,26.9,15.8,0000.0,0002.15,0000.42,0000.28
2022-12-28 04:13:00,,0807.8,5.00,0.00,25.0,23.6,00.0,34.0,26.8,15.9,0000.0,0002.10,0000.40,0000.28
2022-12-28 04:14:00,,0807.7,4.99,0.00,25.0,23.5,00.0,34.0,26.7,15.5,0000.0,0002.03,0000.37,0000.27
2022-12-28 04:15:00,,0807.8,4.99,0.00,25.0,23.5,00.0,34.0,26.7,15.1,0000.0,0001.90,0000.32,0000.24
2022-12-28 04:16:00,,0807.8,5.00,0.00,25.0,23.6,00.0,33.9,26.7,15.2,0000.0,0001.90,0000.31,0000.23
2022-12-28 04:17:00,,0807.8,5.01,0.00,25.0,23.6,00.0,33.9,26.7,15.2,0000.0,0001.91,0000.29,0000.22
2022-12-28 04:18:00,,0807.8,5.00,0.00,25.0,23.6,00.0,33.9,26.7,15.3,0000.0,0001.08,0000.25,0000.21
2022-12-28 04:19:00,,0807.8,5.00,0.00,25.0,23.7,00.0,33.9,26.7,15.3,0000.0,0000.47,0000.25,0000.19
2022-12-28 04:20:00,,0807.8,5.00,0.00,25.0,23.8,00.0,33.9,26.8,15.3,0000.0,0000.57,0000.25,0000.18
2022-12-28 04:21:00,,0807.8,4.99,0.00,25.0,23.7,00.0,33.9,26.8,15.2,0000.0,0000.56,0000.24,0000.17
2022-12-28 04:22:00,,0807.8,5.00,0.00,25.0,23.7,00.0,33.9,26.8,15.3,0000.0,0000.55,0000.23,0000.16
2022-12-28 04:23:00,,0807.8,5.00,0.00,25.0,23.7,00.0,33.9,26.8,15.0,0000.0,0000.54,0000.22,0000.15
2022-12-28 04:24:00,,0807.8,5.01,0.00,25.0,23.7,00.0,33.9,26.7,15.0,0000.0,0000.52,0000.20,0000.13
2022-12-28 04:25:00,,0807.8,5.00,0.00,25.0,23.7,00.0,33.9,26.8,15.1,0000.0,0001.13,0000.19,0000.12
2022-12-28 04:26:00,,0807.8,5.00,0.00,25.0,23.6,00.0,33.9,26.8,15.0,0000.0,0001.28,0000.21,0000.12
2022-12-28 04:27:00,,0807.8,5.00,0.00,25.0,23.6,00.0,33.9,26.7,15.1,0000.0,0001.26,0000.21,0000.12
2022-12-28 04:28:00,,0807.8,5.00,0.00,25.0,23.5,00.0,33.9,26.7,15.3,0000.0,0001.25,0000.21,0000.12
2022-12-28 04:29:00,,0807.8,4.99,0.00,24.9,23.4,00.0,33.9,26.7,15.6,0000.0,0001.23,0000.19,0000.11
2022-12-28 04:30:00,,0807.8,5.00,0.00,24.9,23.4,00.0,33.9,26.7,15.6,0000.0,0001.21,0000.19,0000.11
2022-12-28 04:31:00,,0807.8,5.01,0.00,24.9,23.4,00.0,33.9,26.7,15.6,0000.0,0001.12,0000.18,0000.11
2022-12-28 04:32:00,,0807.7,5.00,0.00,24.9,23.4,00.0,33.9,26.7,15.7,0000.0,0001.14,0000.19,0000.11
2022-12-28 04:33:00,,0807.7,4.99,0.00,24.9,23.4,00.0,33.9,26.7,15.8,0000.0,0001.15,0000.20,0000.11
2022-12-28 04:34:00,,0807.7,4.99,0.00,24.9,23.4,00.0,33.9,26.7,15.8,0000.0,0001.18,0000.21,0000.12
2022-12-28 04:35:00,,0807.7,5.00,0.00,24.9,23.4,00.0,33.9,26.7,15.8,0000.0,0001.34,0000.25,0000.13
2022-12-28 04:36:00,,0807.6,5.00,0.00,24.9,23.3,00.0,33.9,26.7,15.9,0000.0,0001.98,0000.29,0000.14
2022-12-28 04:37:00,,0807.6,5.00,0.00,24.9,23.3,00.0,33.9,26.7,16.0,0000.0,0001.93,0000.30,0000.16
2022-12-28 04:38:00,,0807.6,4.99,0.00,24.9,23.3,00.0,33.9,26.7,16.0,0000.0,0002.00,0000.32,0000.18
2022-12-28 04:39:00,,0807.7,5.00,0.00,24.9,23.3,00.0,33.9,26.6,16.0,0000.0,0001.95,0000.32,0000.18
2022-12-28 04:40:00,,0807.7,5.00,0.00,24.9,23.3,00.0,33.8,26.6,16.0,0000.0,0002.30,0000.34,0000.20
2022-12-28 04:41:00,,0807.7,5.00,0.00,24.9,23.3,00.0,33.8,26.6,16.0,0000.0,0002.44,0000.36,0000.21
2022-12-28 04:42:00,,0807.7,5.00,0.00,24.9,23.3,00.0,33.8,26.6,16.0,0000.0,0002.47,0000.39,0000.22
2022-12-28 04:43:00,,0807.6,5.00,0.00,24.8,23.2,00.0,33.8,26.6,15.9,0000.0,0002.47,0000.39,0000.23
2022-12-28 04:44:00,,0807.6,5.00,0.00,24.8,23.2,00.0,33.8,26.6,16.0,0000.0,0002.50,0000.42,0000.24
2022-12-28 04:45:00,,0807.5,5.00,0.00,24.8,23.3,00.0,33.8,26.6,15.9,0000.0,0002.53,0000.44,0000.26
2022-12-28 04:46:00,,0807.6,5.01,0.00,24.8,23.3,00.0,33.8,26.6,15.7,0000.0,0002.43,0000.43,0000.27
2022-12-28 04:47:00,,0807.5,5.00,0.00,24.8,23.3,00.0,33.8,26.6,15.7,0000.0,0001.68,0000.40,0000.26
2022-12-28 04:48:00,,0807.6,5.00,0.00,24.8,23.3,00.0,33.8,26.6,15.7,0000.0,0001.11,0000.39,0000.26
2022-12-28 04:49:00,,0807.6,5.00,0.00,24.8,23.3,00.0,33.8,26.6,15.8,0000.0,0001.02,0000.38,0000.26
2022-12-28 04:50:00,,0807.6,5.00,0.00,24.8,23.3,00.0,33.8,26.6,15.9,0000.0,0001.02,0000.38,0000.26
2022-12-28 04:51:00,,0807.6,5.00,0.00,24.8,23.3,00.0,33.8,26.6,15.9,0000.0,0000.80,0000.38,0000.26
2022-12-28 04:52:00,,0807.6,5.00,0.00,24.8,23.4,00.0,33.8,26.6,15.9,0000.0,0000.58,0000.40,0000.26
2022-12-28 04:53:00,,0807.5,4.99,0.00,24.8,23.4,00.0,33.8,26.6,15.7,0000.0,0000.61,0000.40,0000.26
2022-12-28 04:54:00,,0807.5,4.99,0.00,24.8,23.4,00.0,33.8,26.6,15.6,0000.0,0000.60,0000.39,0000.25
2022-12-28 04:55:00,,0807.5,5.00,0.00,24.8,23.4,00.0,33.8,26.6,15.4,0000.0,0000.60,0000.37,0000.25
2022-12-28 04:56:00,,0807.4,5.01,0.00,24.8,23.3,00.0,33.8,26.5,15.3,0000.0,0000.55,0000.34,0000.23
2022-12-28 04:57:00,,0807.4,5.00,0.00,24.8,23.3,00.0,33.8,26.5,15.3,0000.0,0000.53,0000.32,0000.22
2022-12-28 04:58:00,,0807.3,5.01,0.00,24.8,23.4,00.0,33.7,26.5,15.4,0000.0,0000.50,0000.31,0000.21
2022-12-28 04:59:00,,0807.2,4.99,0.00,24.8,23.4,00.0,33.7,26.6,15.4,0000.0,0000.54,0000.32,0000.21
